TIMESTAMP,CO2_1_1_1,H2O_1_1_1,TAU_1_1_1,TAU_SSITC_TEST_1_1_1,H_1_1_1,H_SSITC_TEST_1_1_1,LE_1_1_1,LE_SSITC_TEST_1_1_1,FC_1_1_1,FC_SSITC_TEST_1_1_1,WD_0_0_1,WS_0_0_1,WS_MAX_0_0_1,U_SIGMA_0_0_1,V_SIGMA_0_0_1,W_SIGMA_0_0_1,USTAR_0_0_1,MO_LENGTH_0_0_1,ZL_0_0_1,FETCH_MAX_0_0_1,FETCH_70_0_0_1,FETCH_80_0_0_1,FETCH_90_0_0_1,PA_0_0_1,RH_0_0_1,TA_0_0_1,VPD_0_0_1,T_SONIC_0_0_1,T_SONIC_SIGMA_0_0_1
[yyyymmddHHMMSS],[mmolCO2 mol-1],[mmolH2O mol-1],[kg m-1 s-2],[#],[W m-2],[#],[W m-2],[#],[umolCO2 m-2 s-1],[#],[Decimal degrees],[m s-1],[m s-1],[m s-1],[m s-1],[m s-1],[m s-1],[m],[#],[m],[m],[m],[m],[kPa],[%],[deg C],[hPa],[deg C],[deg C]
20221231003000,429.47409777417130,3.9878674939078285,0.39936487260620152,1,19.605895704810930,0,4.6069179841506251,1,0.57986077475513242,0,226.23474237244531,1.8649957883322770,5.4386996173325945,0.96816924492204925,0.75172118189501247,0.61065672402107474,0.57264875107600766,-795.69710015527846,-2.3878433132774008E-002,118.93997401531072,217.46020645907714,260.24432701981516,325.79501571354001,93.569907261340916,94.910344827586201,-5.8831034482758469,0.20015581231146543,-5.4531940164549724,0.13402159454423820
20221231010000,429.43008453536095,3.8846339165328119,0.18993991562796839,0,9.7992475858658015,0,0.76338492346696563,1,0.46837273802689522,0,237.25829508436956,1.9688707496926960,4.6003740961656296,0.80287147853385754,0.78050919339961988,0.59330112219347453,0.39468105466590231,-521.15545594033995,-3.6457451962615649E-002,90.371561843943368,165.22803758207834,197.73576115612039,247.54170878845693,93.557958999133589,94.946666666666673,-6.2330000000000041,0.19348421511907191,-5.8032635044979770,0.11800210300246662
20221231013000,429.45503524110177,3.8141115097344014,0.12583448879706008,1,12.865968556265281,0,1.4687206921479643,0,0.64852807369357601,0,210.48189651648863,1.2719654287090547,3.6077142534311806,0.61046438323565599,0.58542167777859533,0.39460703142980563,0.32115486473037491,-213.80901377654232,-8.8864354520887617E-002,106.19269632881633,194.15411731246755,232.35289076954825,290.87824724643320,93.530710912760426,94.796666666666667,-6.4553333333333285,0.19586312636827019,-6.0211392813788507,8.2236972037600067E-002
20221231020000,429.29687446822732,3.7418865010388203,0.10994482304713678,0,18.961270976784654,0,2.8519354503292655,1,0.88712900574013998,0,188.54191374424343,1.4247908404897487,3.5864145359817914,0.67360858597033113,0.55981464678189541,0.39745844009778031,0.30008660621661254,-118.33626321121841,-0.16055940490605908,100.00433134713882,182.83981244817957,218.81255756077906,273.92735682344374,93.508560839349954,94.756666666666661,-6.7019999999999982,0.19366723658001889,-6.2721692067832464,0.12039528611770937
20221231023000,429.00372042213291,3.6965229150691972,0.10907633357681801,0,14.189916777994767,1,2.5311205952735429,1,0.61249821904412183,1,202.57665260075942,1.4667582583568355,4.0350908113553734,0.65813256653052565,0.59194187217923022,0.38091073662907327,0.29889480525525836,-156.16236361006330,-0.12166824041830536,103.13617534180335,188.56582212083768,225.66512869567444,282.50596272866068,93.436123981987862,95.053333333333327,-6.9113333333333458,0.17979184587280828,-6.4496496200561069,7.2632452031405823E-002
20221231030000,429.21861542546014,3.7000420936655978,0.14638667728571153,1,23.961916592908967,0,3.8721440177741218,0,0.78935433561292578,0,212.78237486449873,1.4300537699856626,4.0972124388891498,0.62378572497723683,0.71112356591099635,0.42209411122108248,0.34633856356716630,-143.83021960074066,-0.13210019460960454,106.88780196513910,195.42499210823775,233.87380331413328,292.78224927420564,93.396285119140629,95.066666666666663,-6.9063333333333503,0.17937625006246946,-6.4602622341579377,0.12023866696930249
20221231033000,428.98916971298200,3.6582803815766272,0.20044723668275036,0,12.576455947269139,0,1.6319937806604215E-003,2,0.12556733856829147,2,203.19953004219380,1.7639702981875272,4.5900781682652179,0.85063875039823345,0.82236612690644839,0.46470577851214856,0.40525156115221023,-438.84934806017526,-4.3295039821717382E-002,112.22566790526126,205.18431347180569,245.55321842086823,307.40349105802346,93.346332953342028,95.176666666666662,-7.0756666666666774,0.17310416394708228,-6.6297260598076377,6.3654563177914000E-002
20221231040000,429.03225040046414,3.6140160007526734,0.15128151411665094,1,18.569435295526073,0,1.7424264960331766,1,0.36796308258239491,0,221.19993779364069,1.4062588217144931,4.3075783240568759,0.64749962364006886,0.58459882781113703,0.41036523461214136,0.35206622449107600,-194.78680995023808,-9.7542538967879316E-002,110.76892510643535,202.52092303126568,242.36582030295196,303.41324684481236,93.282921138454853,95.186666666666667,-7.2436666666666838,0.17052125006732979,-6.8198036058213347,0.10984284719316335
20221231043000,429.08217932291240,3.6096543637643932,0.17453264998412790,1,11.244428581446495,0,0.78735993140846616,1,0.34129212919666940,0,196.38970726338613,1.4424911692671627,4.0419555126302633,0.76302793254231793,0.68945241231951504,0.40899740945015689,0.37819897365774846,-398.68107684035505,-4.7657140265045042E-002,117.61283830800127,215.03377911789093,257.34051321060537,322.15978540349113,93.258004724745788,95.109999999999999,-7.2523333333333539,0.17312145556726136,-6.8335243482420651,6.8894741029231654E-002
20221231050000,429.39107909127586,3.6302556911852375,9.8104024015830682E-002,0,12.868360952789867,0,1.0280444494059593,1,0.53012873120866710,0,201.49182642599956,1.1761023493022065,5.2185309395426254,0.84190685536171017,0.56109901256921546,0.36755998054992395,0.28362128373267553,-146.90947964408781,-0.12933134094566667,101.76147156145254,186.05242517107308,222.65723447734428,278.74043609702375,93.243810947916657,94.930000000000007,-7.1560000000000059,0.18083320843721992,-6.7751263283623757,8.8920850566708662E-002
20221231053000,429.37781902716904,3.6106936898625337,0.17754946689306883,1,17.171890364589796,0,0.96255960314442313,0,0.51556762807109513,0,219.55272759124946,1.5191787530948984,4.2166089703570107,0.69288414581331481,0.61379989795829248,0.44148463803174737,0.38153947091007129,-267.96884161733863,-7.0903765845777442E-002,111.41765180227402,203.70700233202655,243.78525429708242,305.19020976929852,93.222483557942709,94.966666666666669,-7.2339999999999804,0.17844824995848285,-6.9258381059434555,6.2492999722691366E-002
20221231060000,429.38097203674317,3.5609878297409434,5.2105674912994893E-002,1,22.425530185365222,1,5.8298298921722651,1,0.57666731255109838,1,208.80209468227292,1.3091241477575992,2.9560660916600252,0.50641485683342569,0.58026430642212257,0.35583736332982480,0.20670577082474290,-32.611834042601743,-0.58261059390832703,81.084107905987324,148.24760970198560,177.41452584544368,222.10193358499450,93.156429330886752,94.656666666666666,-7.3803333333333399,0.18730995664567218,-7.1325661081588692,0.14406388462587016
20221231063000,429.41687889356342,3.5059370187087344,4.0180787142283972E-002,0,13.555332317123884,1,3.7912056719116540,1,0.15954866240788940,1,215.46024968461464,0.80004644935496361,2.5846935354237059,0.53901980851701370,0.32919789603710797,0.29346110173938411,0.18151858677807317,-36.517951373468797,-0.52029205597233952,35.142851060941197,122.00000000000000,173.00000000000000,297.00000000000000,93.095651399088524,94.333333333333329,-7.5459999999999923,0.19611574871631718,-7.3304520534939002,8.7609938736443974E-002
20221231070000,429.66972862219939,3.4798444715017425,6.8188708334420534E-002,1,13.537243213365896,1,3.1856456301238785,1,0.62344025261194314,1,176.42527382214871,0.73077243577135942,2.5582133598330734,0.63428461692395388,0.49966130846363993,0.31575812719846191,0.23658821221915285,-80.882745342874728,-0.23490795125036867,99.395277785572588,181.72626828996596,217.47992960654375,272.25906476012693,92.962377359809039,94.243333333333339,-7.6486666666666565,0.19765325882057197,-7.4439865332709019,9.5913714453486010E-002
20221231073000,429.54089398286737,3.4716657864493934,0.14050242596829343,0,14.180055899533535,0,0.53042629938991148,2,0.35546476987580716,0,184.44744361830629,1.4590036438352425,4.2171896890770446,0.72771540990868488,0.76025159301074674,0.45831172291685413,0.33962397809457889,-228.40919052477670,-8.3184043323068363E-002,98.520090647636039,180.12614707519666,215.56499318912554,269.86179160014098,92.959433402084144,93.900000000000006,-7.6323333333333494,0.20970660020376841,-7.3998971617309053,9.2115448963795851E-002
20221231080000,429.46262727481417,3.3969931358019538,0.26465444106398922,0,22.491235485069417,1,4.2381386357937263,1,0.67059565607495697,1,187.62138294993531,1.3450156208894208,5.8461814870127808,0.86103276732041212,0.82688393823571715,0.50807227897453766,0.46593863080528519,-371.80069914650471,-5.1102647315123047E-002,116.83621391104904,213.61386202861488,255.64123510662674,320.03249086098515,92.943548519097234,93.606666666666669,-7.8746666666666556,0.21570040767421006,-7.6609725375705011,9.9151385031778422E-002
20221231083000,429.83986016265692,3.4016422984892536,1.1988216137491115E-002,1,7.5982306975365717,1,0.84552612371638147,1,-2.2068706699905613E-002,2,166.78452716118210,0.75363794335904577,3.4159098994176409,0.49785417521832881,0.66536560967470282,0.30724704406536063,9.9221302612469101E-002,-10.619905039442020,-1.7890932102909158,55.131331950356433,169.00000000000000,232.00000000000000,376.00000000000000,92.847861158203145,93.510000000000005,-7.8570000000000277,0.21926214887031223,-7.6646943401760268,5.5760362121522716E-002
20221231090000,430.15497786442216,3.4143420619170057,3.4613990573805396E-002,0,7.6349364572903244,1,0.93723807594194397,1,0.39349821384664813,1,241.73599080440312,1.0857991752470646,2.9996676001319398,0.68466681423525089,0.34659695747677960,0.23410736769684445,0.16869728729533434,-51.905887787730308,-0.36604710582546446,69.139110823883996,238.00000000000000,336.00000000000000,573.00000000000000,92.751618392578123,93.510000000000005,-7.8223333333333471,0.21985261900696287,-7.5930209028455806,5.8237057171720563E-002
20221231093000,430.21170335737906,3.4043333884714784,0.14345918346396405,1,7.9206510236600316,1,2.4864206074482826,1,0.30515331213442448,0,210.72846992534187,1.0138270343973541,2.7946718196606031,0.58439548942369857,0.62213857585882659,0.34049042243317246,0.34355467922251171,-422.35226030635818,-4.4986144945023204E-002,126.11527000212200,230.57893596624947,275.94409566963265,345.44926306079060,92.677216154947914,93.373333333333335,-7.8516666666666879,0.22397204006938409,-7.6012648908827032,6.4537533913537823E-002
20221231100000,430.23053427461639,3.3617127262160835,7.8151822376846841E-002,0,5.0266947295231033,0,0.28993439554871264,2,0.22431286933717473,0,113.06746405254322,1.0422854410304396,3.0339662308378821,0.59802576034722399,0.83978702415917916,0.32528585136995530,0.25362140733475153,-267.55978497806149,-7.1012166501620941E-002,102.61042523208320,187.60458324087199,224.51477126019103,281.06585172581464,92.587914595052098,93.179999999999993,-7.9996666666666556,0.22787309364119041,-7.7634309251573086,9.3443093375549235E-002
20221231103000,430.00846321556230,3.4138567677977765,0.14167931917086724,0,8.4921965006309073,1,1.5885296987889772,2,0.18933459794355836,1,104.97149961012367,1.7887799786681138,4.4558098796043151,0.73496338801184613,0.63373698636474918,0.41169676444510822,0.34172481631546286,-387.18677087343866,-4.9071924531767147E-002,107.87831433450081,197.23596462714832,236.04107489043409,295.49541610993333,92.516612967664926,93.346666666666664,-7.8343333333333476,0.22517593148622270,-7.5594874572753952,0.11572511225262289
20221231110000,430.04932511353081,3.4572936965520924,0.19513954139244233,0,6.0110837974839662,1,-1.7155979247907269,1,0.44608514690783324,0,131.93076268552494,1.5272183810232012,4.1014800677710950,0.77307897894946986,0.68361952407170601,0.45701079169278164,0.40118098241660138,-885.05577280027285,-2.1467573664747632E-002,112.81997664019504,206.27089938431394,246.85358424022621,309.03139475683810,92.512964898220488,93.353333333333339,-7.6726666666666574,0.22778725589859733,-7.3792507815890644,7.5303546211375041E-002
20221231113000,430.16194858518855,3.4508134315171182,0.24743419968712949,1,9.6611495060838166,0,-0.55984615941614901,1,1.1287917494684747,0,143.94416111946791,1.4842653185144579,4.3971611157424517,0.75013442102896399,0.75906354790465669,0.49957519144852724,0.45168674205357545,-786.04775285304731,-2.4171559464469427E-002,115.51651643811657,211.20103415217298,252.75369638336409,316.41763502727019,92.532005814448127,93.329999999999998,-7.6909999999999741,0.22826246536793462,-7.3890146714367120,5.7994361945435627E-002
20221231120000,430.18004417663138,3.4558696512071845,0.22518934283567996,0,12.158305422241177,0,1.2145095666643679,1,0.34123773733556817,1,173.78741667367069,1.7244630269668320,5.8359821541578878,0.88935027876922557,0.81114971716140061,0.53875610700958299,0.43089062920428395,-542.29786589636444,-3.5036095833781110E-002,104.72123961283646,191.46382513860689,229.13329814764575,286.84769933457017,92.545036544487843,93.340000000000003,-7.6716666666666811,0.22826188349551729,-7.3801282196044440,7.2547967928124610E-002
20221231123000,430.48564979603981,3.4368595956885621,0.14206155193518680,0,13.658001503284149,0,0.48053750268873346,1,0.38431945575366344,1,187.68885666219214,1.1824942688434215,3.5178332474273604,0.67773755409459568,0.52349064674644052,0.44972975155954303,0.34225866445345721,-241.86409207512216,-7.8556514267933017E-002,100.64151498354238,184.00478735482307,220.20673498528851,275.67270151981802,92.511313953342011,93.273333333333326,-7.7383333333333439,0.22935886392131580,-7.4378161290486560,6.9805768906913576E-002
20221231130000,430.71294749420343,3.4160749176931811,0.18105693990500146,1,7.8868990281225475,0,-4.0112438374434435E-002,2,1.2118583258653406,0,148.22030042705561,1.3872302604427438,4.4777508053017758,0.66425109531911641,0.83199046781340646,0.42122453263240406,0.38635775624552249,-602.44781460331876,-3.1538001366160709E-002,116.85187416266901,213.64249396315725,255.67550021957584,320.07538671635126,92.500374664930561,93.210000000000008,-7.8093333333333135,0.23024734128112470,-7.4966405300564247,6.6965275334241445E-002
20221231133000,430.30496844407770,3.3851552114352228,0.24922258177505324,0,14.351972153079963,0,0.52005623455728922,0,0.47151939337859633,0,129.31358729817714,2.2207183908784369,5.1036000275177393,0.87483667242222762,0.71527518494959386,0.50879589146493975,0.45325925017726137,-534.43718905193396,-3.5551418182003934E-002,114.15563758793743,208.71291358399753,249.77605153811822,312.68997702121362,92.474717121093747,93.103333333333325,-7.9153333333333080,0.23194877476354919,-7.6108415756225440,9.1412733559601722E-002
20221231140000,430.34057919231890,3.3669886589905591,0.24529016157161962,0,14.302324363085685,0,1.7798516942771179,1,0.28537455466426864,0,155.20532850961288,1.8930996237297191,6.0547347007626344,0.87659335642549119,0.93110564143115571,0.52517020688573124,0.44968234056759238,-523.57776330786771,-3.6288783312647781E-002,110.59602084515154,202.20479889665310,241.98750045305127,302.93963528580321,92.445974656467001,93.043333333333337,-7.9803333333333057,0.23278879480516027,-7.6870867902967461,8.7510163846153982E-002
20221231143000,430.28658715921472,3.3462702288467416,0.18009973049828337,0,16.999455646650691,0,0.58108967964082436,1,0.45385857499921151,0,158.11377566269960,2.0181627048217115,4.8308481437465574,0.77138977644293893,0.83100321839507241,0.50559695927747972,0.38533752466559162,-277.10409115287649,-6.8566291897573697E-002,100.75912321176855,184.21981270524105,220.46406541149804,275.99484867749311,92.411828173611113,92.959999999999994,-8.0529999999999973,0.23425107625028943,-7.7860314237806278,0.10352333315840034
20221231150000,430.25235462433778,3.3440693396630059,0.17775959018164833,0,15.395422095727751,0,0.35969137664082917,1,0.23885321066755702,0,145.09737714824979,1.8962889900546587,4.8725904736551682,0.76008030313157060,0.78335969214105350,0.48294128114027512,0.38291856153741266,-300.13367949124131,-6.3305124677133978E-002,103.99790027309308,190.14133012830601,227.55060939025421,284.86636081899610,92.362144987847216,92.950000000000003,-8.0670000000000073,0.23432870176432061,-7.7741081709254445,0.12800640480171702
20221231153000,430.42238051262996,3.3855534766581461,0.29299869969949627,1,44.150066553392435,0,6.5572728222240935,1,0.44943311960388693,0,142.72297337839410,1.8009021192494072,4.3544370990501742,0.78387010427653270,0.76439222255825268,0.54538299694452974,0.49177635447355822,-221.68616857208994,-8.5706745361614226E-002,115.26772961345678,210.74617249020682,252.20934314728007,315.73616937099786,92.355142392795145,92.986666666666665,-7.9143333333333317,0.23589082035834963,-7.6122663133409105,0.14957150058412616
20221231160000,430.33681940911765,3.4015598170250292,0.24809722735166959,0,65.798944545731686,1,11.006676125572977,1,7.5155182841508225E-002,2,150.17467571513640,1.7195992647309266,4.7942760965992903,0.97165909473627543,0.61294458136102670,0.51389444141022755,0.45256497139506652,-115.93297842507233,-0.16388779325875535,113.10987250911217,206.80092149023972,247.48788533148465,309.82546445418802,92.359538798394112,93.040000000000006,-7.8603333333333580,0.23508010999756665,-7.5745510847303308,0.23871954385385910
20221231163000,430.18385162989216,3.5180891510538079,0.32656563446643172,0,57.252266095756326,0,11.009807086225795,0,0.91701381696573936,1,133.12234517657407,1.8327913224068022,4.6763755676341292,0.99941416916176629,0.73615587207933375,0.51696976650390503,0.51959993699058260,-201.67321973664167,-9.4211814661418439E-002,125.72396101896247,229.86349834343471,275.08789956044188,344.37740713201015,92.371703364149312,93.253333333333330,-7.4533333333333189,0.23517283845534734,-7.1295977138943272,0.22396250240564983
20221231170000,429.84535120245300,3.7209653216798695,0.34290107219890631,1,66.409839061688089,0,15.832044982908043,1,-0.82217765415621535,2,152.28566026331936,1.5881870713106565,4.7420047812644901,0.88459756972022308,0.74611926146589580,0.58153925550090191,0.53294078044592730,-187.70051045158749,-0.10122508433401708,116.77095546016425,213.49454876728208,255.49844760584350,319.85373785378579,92.434447391710066,93.776666666666671,-6.7900000000000205,0.22831488315184062,-6.4567424045138750,0.21102759957711331
20221231173000,429.30539336912796,3.7918161257536802,0.30838597101156218,0,37.915637084851255,1,-0.45891803392310998,2,0.91676014965531305,0,149.89908936285534,1.7653559730032682,4.8858760341496144,0.93555868448818214,0.86359343245749021,0.58819145888103253,0.50543547448930548,-280.59466938876807,-6.7713331979501079E-002,110.91045955254963,202.77969313885896,242.67550203093342,303.80093162007449,92.504142710069459,94.010000000000005,-6.5670000000000073,0.22355155793406994,-6.1661130659315404,0.27061981628808573
20221231180000,428.81623429054866,3.9794420616437072,0.19347601484975707,0,72.669219311281083,0,19.440195716674719,1,-0.26249857759232104,1,162.50790304787640,1.7986093848068099,5.0661670629078248,1.0446641378020340,0.72715071740636572,0.54870770283111625,0.40060910659251953,-72.949599340465156,-0.26045379511030015,97.355100220054609,177.99617301893787,213.01595824674840,266.67070233177475,92.592101189670146,94.396666666666661,-5.9773333333333198,0.21877737385606225,-5.4910942501492173,0.29259029108046830
20221231183000,428.91899347561491,4.1412242189322228,0.11019760102230906,1,49.286370914985831,0,8.5845175334998505,0,0.24443782636010780,2,175.84182345340105,1.3456406882349439,3.9111870904257930,0.66094873850424474,0.76024124462670706,0.45401559989441603,0.30248774146089252,-46.332402217923132,-0.41008018342399000,90.482481540397828,165.43083416321986,197.97845686877724,247.84553502138237,92.670948609809017,94.820000000000007,-5.5020000000000095,0.20970975934711134,-4.9787492489284659,0.19943056941303508
20221231190000,428.59191835382995,4.2188299615647873,0.17442663538856543,1,67.895511270428429,0,18.824376159451166,1,-0.29015537936233260,2,197.73916730326098,1.3898228014293574,4.4201962969118425,0.85562085697731505,0.77003406343494629,0.44784636120010873,0.38059674351924278,-67.032943675013470,-0.28344272171777307,109.93189498952054,200.99056502048177,240.53437262293338,301.12049167691680,92.742487776909726,94.893333333333331,-5.2576666666666938,0.21061487979886237,-4.6733156806097895,0.23241136033149426
20221231193000,428.79111832453225,4.2595254867337964,0.19355686608601436,1,69.850709884562420,0,14.345684294369134,0,-2.5331796838505564E-002,2,157.51797512089013,1.3210338764856360,4.5750590089700314,0.73901510834716466,1.0185723467786985,0.49225119063013184,0.40077502535664933,-76.145341236844658,-0.24952281638481144,106.22481901491525,194.21284782766168,232.42317619625274,290.96623626029509,92.854608557074656,95.060000000000002,-5.1383333333333212,0.20559393691610922,-4.4903335596720240,0.19553220849060948
20221231200000,429.47510402212043,4.3029872687495692,0.21766680941693800,1,36.266712610053261,0,3.0289034861457216,1,-7.2894803677339332E-002,2,110.30379310483401,1.9814881871258092,4.5393217191030715,0.75431840346267265,0.68943059277594343,0.50711555283758758,0.42499784510141558,-174.94834922415058,-0.10860348259506276,108.71231350272144,198.76078109704778,237.86589076134325,297.77986903978302,92.897164240668403,95.266666666666666,-5.0269999999999868,0.19866214363613949,-4.3887950897216683,0.13364529279501552
20221231203000,429.63220727222364,4.3951566374797109,0.27255458292323692,0,45.981640628421708,0,6.6537848532074326,1,0.43049329283739690,0,118.65073603334976,1.7779592725628490,4.9659776111312350,0.92672153546087666,0.75101317196926409,0.50173565221355909,0.47573502584266569,-193.57314690731138,-9.8154110234606920E-002,119.99607258562592,219.39109147097662,262.55510322414563,328.68783331468222,92.917774034505214,95.629999999999995,-4.7943333333333271,0.18667102621451648,-4.1941088273790115,0.18796075291563108
20221231210000,429.61736711356696,4.4650215287920112,0.38461594113696768,1,67.711622458092435,0,9.9498693765975155,1,2.0579384254442128,0,138.20199029985520,1.6767600695845941,5.9897196516309634,0.96975931214402511,0.68084889308817043,0.56086804753347552,0.56525910117226474,-220.55302685582214,-8.6147083406025990E-002,125.99821466317137,230.36492147376214,275.68797498218936,345.12863035249808,92.945811070153638,95.780000000000001,-4.6023333333333198,0.18289737665412817,-4.1246274603699362,0.17415377592624076
20221231213000,429.21683427184809,4.3984711602270297,0.28230926381265320,0,29.056946424797086,0,0.72964813712723886,1,0.36832074318301761,0,131.38117746391259,2.1219893056579471,5.4262796517786525,1.0151141100291596,0.74777483914238785,0.52656922542901252,0.48412579107316689,-322.87357752896054,-5.8846562005513664E-002,117.07309412632391,214.04695461120710,256.15953631460059,320.68134246950973,92.939754529730905,95.650000000000006,-4.7839999999999918,0.18596192437507511,-4.3682559254963849,0.10056725899334396
20221231220000,429.05617290677725,4.3267491760194687,0.27842541962169703,0,16.437985117667338,0,0.76085496095486993,2,0.47046288003987885,0,132.38338446885950,2.6955132856973827,5.8813533477454412,0.95123234803547174,0.81162911980810049,0.57710984926099029,0.48061265316723800,-558.36345179163277,-3.4028015155781223E-002,108.16438145454691,197.75898655902105,236.66699856122040,296.27899827095302,92.933197060980902,95.539999999999992,-4.9869999999999663,0.18775810724266592,-4.5298276553683650,6.4207961134022398E-002
20221231223000,429.12486682320770,4.2782401789410338,0.24712609849576192,0,3.7293589021033493,0,0.15018115419595404,2,0.46797643133996902,0,132.16037974197312,2.5870157414743415,5.7855881924807866,0.83544213965419045,0.71825017365925192,0.52678795470108652,0.45268113146125094,-2056.4136024898098,-9.2393864624293887E-003,110.91241077972145,202.78326060444104,242.67977137609174,303.80627633359376,92.930658394965292,95.439999999999998,-5.1223333333333585,0.19000939160936639,-4.6514640867444541,7.9532073485584123E-002